Regional Weather Roundup
Issued by NWS Goodland, KS

Home | Current Version | Previous Version | Graphics & Text | Print | Product List | Glossary On
Versions: 1 2 3 4 5 6 7 8 9 10 11 12 13 14 15 16 17 18 19 20 21 22 23 24 25 26 27 28 29 30 31 32 33 34 35 36 37 38 39 40 41 42 43 44 45 46 47 48 49 50
000
ASUS43 KGLD 251308
RWRGLD

GOODLAND FORECAST AREA HOURLY WEATHER ROUNDUP
NATIONAL WEATHER SERVICE GOODLAND KS
600 AM MST TUE NOV 25 2014

...OFFICIAL OBSERVATIONS...

CITY           SKY/WX    TMP DP  RH WIND       PRES   REMARKS
GOODLAND KS    CLEAR     20  14  77 SW9       30.13F
HILL CITY KS   CLEAR     23  17  78 W8        30.17F
IMPERIAL NEB   PTCLDY    20  14  77 W9        30.08F
MCCOOK NEB     PTCLDY    18  15  88 W9        30.13F
AKRON CO       MOCLDY    25  13  60 S12       30.05F WCI  14
BURLINGTON CO  CLEAR     17  10  74 SW10      30.13F WCI   5
LIMON CO       PTCLDY     9   5  84 N3        30.10F
$$

...UNOFFICIAL OBSERVATIONS...

CITY           SKY/WX    TMP DP  RH WIND       PRES   REMARKS
COLBY KS       CLEAR     18  16  93 W8        30.15S
GOVE KS          N/A     18  32 100 MISG        N/A
NORTON KS      CLEAR     19  14  79 SW9       30.12F
SHARON SPRINGS   N/A     18  14  83 W10         N/A  WCI   6
TRIBUNE KS     CLEAR     21  18  86 W12       30.21S WCI   9
TRENTON NEB      N/A     21  32 100 SW9         N/A
$$


USA.gov is the U.S. government's official web portal to all federal, state and local government web resources and services.